• In Hungary
  • List of Countries
  • For 7 days
  • Water Temperature
  • Satellite Maps
  • Weather Map
  • News
  • Weather Widgets
  • user-avatar
    Login

    Hourly Weather Promyk

    Today, 24 November, Friday

    Time Temperature Precipitation Wind Pressure Humidity
    00:00 +3°C° 0 mm 3 mps 736 mmHg 86%
    01:00 +3°C° 0 mm 3 mps 736 mmHg 86%
    02:00 +3°C° 0 mm 3 mps 736 mmHg 87%
    03:00 +3°C° 0 mm 3 mps 736 mmHg 88%
    04:00 +3°C° 0 mm 3 mps 736 mmHg 89%
    05:00 +3°C° 0 mm 3 mps 736 mmHg 89%
    06:00 +3°C° 0 mm 3 mps 736 mmHg 89%
    07:00 +3°C° 0 mm 3 mps 736 mmHg 89%
    08:00 +4°C° 0 mm 3 mps 736 mmHg 84%
    09:00 +5°C° 0 mm 3 mps 737 mmHg 80%
    10:00 +7°C° 0 mm 3 mps 737 mmHg 75%
    11:00 +8°C° 0 mm 3 mps 737 mmHg 73%
    12:00 +9°C° 0 mm 3 mps 736 mmHg 70%
    13:00 +10°C° 0 mm 3 mps 736 mmHg 67%
    14:00 +9°C° 0 mm 3 mps 736 mmHg 71%
    15:00 +8°C° 0 mm 3 mps 736 mmHg 75%
    16:00 +8°C° 0 mm 3 mps 736 mmHg 79%
    17:00 +7°C° 0 mm 3 mps 736 mmHg 81%
    18:00 +7°C° 0 mm 3 mps 736 mmHg 83%
    19:00 +7°C° 0 mm 3 mps 736 mmHg 85%
    20:00 +7°C° 0 mm 3 mps 736 mmHg 85%
    21:00 +5°C° 0 mm 3 mps 736 mmHg 85%
    22:00 +5°C° 0 mm 3 mps 736 mmHg 85%
    23:00 +5°C° 0 mm 3 mps 736 mmHg 85%

    Tomorrow, 25 November, Saturday

    Time Temperature Precipitation Wind Pressure Humidity
    00:00 +6°C° 0 mm 2 mps 736 mmHg 85%
    01:00 +6°C° 0 mm 2 mps 736 mmHg 85%
    02:00 +5°C° 0 mm 2 mps 736 mmHg 85%
    03:00 +5°C° 0 mm 2 mps 736 mmHg 86%
    04:00 +5°C° 0 mm 2 mps 735 mmHg 86%
    05:00 +5°C° 0 mm 2 mps 735 mmHg 87%
    06:00 +4°C° 0 mm 2 mps 735 mmHg 87%
    07:00 +4°C° 0 mm 2 mps 734 mmHg 88%
    08:00 +4°C° 0 mm 3 mps 734 mmHg 84%
    09:00 +5°C° 0 mm 3 mps 733 mmHg 81%
    10:00 +6°C° 0 mm 4 mps 733 mmHg 77%
    11:00 +7°C° 0 mm 4 mps 732 mmHg 73%
    12:00 +8°C° 0 mm 5 mps 732 mmHg 69%
    13:00 +9°C° 0 mm 5 mps 731 mmHg 65%
    14:00 +8°C° 0 mm 5 mps 731 mmHg 68%
    15:00 +8°C° 0 mm 5 mps 730 mmHg 71%
    16:00 +7°C° 0 mm 4 mps 730 mmHg 74%
    17:00 +7°C° 0.2 mm 4 mps 730 mmHg 76%
    18:00 +7°C° 0.2 mm 4 mps 730 mmHg 77%
    19:00 +7°C° 0.2 mm 5 mps 729 mmHg 79%
    20:00 +7°C° 0.3 mm 5 mps 730 mmHg 80%
    21:00 +7°C° 0.3 mm 5 mps 730 mmHg 81%
    22:00 +7°C° 0.3 mm 5 mps 730 mmHg 81%
    23:00 +7°C° 0.1 mm 5 mps 730 mmHg 82%

    Day after tomorrow, 26 November, Sunday

    Time Temperature Precipitation Wind Pressure Humidity
    00:00 +6°C° 0.1 mm 5 mps 731 mmHg 82%
    01:00 +5°C° 0.1 mm 5 mps 731 mmHg 82%
    02:00 +5°C° 0.1 mm 5 mps 732 mmHg 81%
    03:00 +3°C° 0.1 mm 5 mps 733 mmHg 80%
    04:00 +3°C° 0.1 mm 5 mps 733 mmHg 79%
    05:00 +3°C° 0.3 mm 5 mps 734 mmHg 80%
    06:00 +2°C° 0.3 mm 5 mps 734 mmHg 80%
    07:00 +3°C° 0.3 mm 4 mps 735 mmHg 81%
    08:00 +3°C° 0.2 mm 4 mps 736 mmHg 79%
    09:00 +3°C° 0.2 mm 4 mps 736 mmHg 78%
    10:00 +3°C° 0.2 mm 4 mps 737 mmHg 77%
    11:00 +3°C° 0.1 mm 4 mps 737 mmHg 75%
    12:00 +3°C° 0.1 mm 4 mps 737 mmHg 73%
    13:00 +4°C° 0.1 mm 4 mps 738 mmHg 71%
    14:00 +3°C° 0 mm 4 mps 738 mmHg 73%
    15:00 +3°C° 0 mm 3 mps 738 mmHg 75%
    16:00 +2°C° 0 mm 3 mps 739 mmHg 77%
    17:00 +2°C° 0 mm 3 mps 739 mmHg 79%
    18:00 +1°C° 0 mm 3 mps 739 mmHg 81%
    19:00 +1°C° 0 mm 3 mps 739 mmHg 83%
    20:00 0°C° 0 mm 3 mps 740 mmHg 84%
    21:00 0°C° 0 mm 3 mps 740 mmHg 84%
    22:00 0°C° 0 mm 3 mps 740 mmHg 85%
    23:00 -1°C° 0 mm 3 mps 740 mmHg 85%

    27 November, Monday

    Time Temperature Precipitation Wind Pressure Humidity
    00:00 -1°C° 0 mm 2 mps 740 mmHg 86%
    01:00 -1°C° 0 mm 2 mps 741 mmHg 86%
    02:00 -2°C° 0 mm 2 mps 741 mmHg 86%
    03:00 -2°C° 0 mm 2 mps 741 mmHg 86%
    04:00 -2°C° 0 mm 2 mps 741 mmHg 87%
    05:00 -2°C° 0 mm 2 mps 741 mmHg 86%
    06:00 -2°C° 0 mm 2 mps 741 mmHg 86%
    07:00 -2°C° 0 mm 2 mps 741 mmHg 85%
    08:00 -1°C° 0 mm 3 mps 741 mmHg 80%
    09:00 0°C° 0 mm 3 mps 741 mmHg 75%
    10:00 +1°C° 0 mm 3 mps 741 mmHg 69%
    11:00 +1°C° 0 mm 3 mps 741 mmHg 67%
    12:00 +2°C° 0 mm 3 mps 741 mmHg 65%
    13:00 +2°C° 0 mm 3 mps 740 mmHg 63%
    14:00 +1°C° 0 mm 3 mps 740 mmHg 67%
    15:00 +1°C° 0 mm 2 mps 740 mmHg 71%
    16:00 -1°C° 0 mm 2 mps 740 mmHg 75%
    17:00 -1°C° 0 mm 2 mps 740 mmHg 76%
    18:00 -1°C° 0 mm 2 mps 740 mmHg 77%
    19:00 -1°C° 0 mm 2 mps 740 mmHg 78%
    20:00 -1°C° 0 mm 2 mps 740 mmHg 78%
    21:00 -1°C° 0 mm 2 mps 740 mmHg 78%
    22:00 -2°C° 0 mm 2 mps 740 mmHg 78%
    23:00 -2°C° 0 mm 2 mps 740 mmHg 79%

    28 November, Tuesday

    Time Temperature Precipitation Wind Pressure Humidity
    00:00 -2°C° 0 mm 2 mps 740 mmHg 79%
    01:00 -2°C° 0 mm 2 mps 740 mmHg 79%
    02:00 -2°C° 0 mm 2 mps 739 mmHg 79%
    03:00 -2°C° 0 mm 2 mps 739 mmHg 79%
    04:00 -2°C° 0 mm 2 mps 739 mmHg 79%
    05:00 -2°C° 0 mm 2 mps 739 mmHg 78%
    06:00 -2°C° 0 mm 2 mps 739 mmHg 78%
    07:00 -2°C° 0 mm 2 mps 739 mmHg 77%
    08:00 -2°C° 0 mm 2 mps 739 mmHg 72%
    09:00 -1°C° 0 mm 3 mps 739 mmHg 68%
    10:00 0°C° 0 mm 3 mps 738 mmHg 63%
    11:00 +1°C° 0 mm 3 mps 738 mmHg 60%
    12:00 +1°C° 0 mm 3 mps 738 mmHg 57%
    13:00 +2°C° 0 mm 3 mps 737 mmHg 55%
    14:00 +1°C° 0 mm 3 mps 737 mmHg 60%
    15:00 0°C° 0 mm 3 mps 737 mmHg 66%
    16:00 -1°C° 0 mm 3 mps 736 mmHg 71%
    17:00 -1°C° 0 mm 3 mps 736 mmHg 73%
    18:00 -2°C° 0 mm 3 mps 736 mmHg 75%
    19:00 -2°C° 0 mm 3 mps 736 mmHg 78%
    20:00 -2°C° 0 mm 3 mps 736 mmHg 78%
    21:00 -2°C° 0 mm 3 mps 736 mmHg 78%
    22:00 -2°C° 0 mm 3 mps 735 mmHg 79%
    23:00 -2°C° 0 mm 3 mps 735 mmHg 77%

    29 November, Wednesday

    Time Temperature Precipitation Wind Pressure Humidity
    00:00 -2°C° 0 mm 2 mps 735 mmHg 76%
    01:00 -2°C° 0 mm 2 mps 735 mmHg 75%
    02:00 -2°C° 0 mm 2 mps 734 mmHg 73%
    03:00 -2°C° 0 mm 2 mps 734 mmHg 71%
    04:00 -2°C° 0 mm 2 mps 734 mmHg 69%
    05:00 -2°C° 0 mm 2 mps 734 mmHg 67%
    06:00 -2°C° 0 mm 2 mps 734 mmHg 66%
    07:00 -2°C° 0 mm 2 mps 734 mmHg 64%
    08:00 -1°C° 0 mm 2 mps 734 mmHg 61%
    09:00 -1°C° 0 mm 2 mps 734 mmHg 58%
    10:00 +1°C° 0 mm 2 mps 734 mmHg 54%
    11:00 +1°C° 0 mm 2 mps 733 mmHg 54%
    12:00 +2°C° 0 mm 2 mps 733 mmHg 53%
    13:00 +2°C° 0 mm 2 mps 733 mmHg 53%
    14:00 +2°C° 0 mm 2 mps 732 mmHg 56%
    15:00 +1°C° 0 mm 2 mps 732 mmHg 60%
    16:00 -1°C° 0 mm 2 mps 732 mmHg 63%
    17:00 -1°C° 0.1 mm 2 mps 732 mmHg 64%
    18:00 -1°C° 0.1 mm 2 mps 732 mmHg 65%
    19:00 -1°C° 0.1 mm 2 mps 732 mmHg 66%
    20:00 -1°C° 0 mm 2 mps 732 mmHg 69%
    21:00 -1°C° 0 mm 2 mps 731 mmHg 73%
    22:00 -2°C° 0 mm 2 mps 731 mmHg 76%
    23:00 -2°C° 0 mm 2 mps 731 mmHg 77%
    Show more